Weather History for Ocala, FL

Change the Weather History Date:

Friday, November 23, 2012

  Actual Average Record
Temperature  
Mean Temperature 12 °C -  
Max Temperature 23 °C 22 °C 27 °C (1998)
Min Temperature 1 °C 8 °C -2 °C (2000)
Degree Days  
Heating Degree Days 12    
Growing Degree Days 3 (Base 50)    
Moisture  
Dew Point 2 °C    
Average Humidity 68    
Maximum Humidity 87    
Minimum Humidity 25    
Precipitation  
Precipitation 0.00 mm - - ()
Sea Level Pressure  
Sea Level Pressure 1022 hPa    
Wind  
Wind Speed 3 km/h (West)    
Max Wind Speed 21 km/h    
Max Gust Speed 26 km/h    
Visibility 16 kilometers    
Events      
Averages and records for this station are not official NWS values.
T = Trace of Precipitation, MM = Missing Value Source: NWS Daily Summary

Daily Weather History Graph

Daily Weather History Graph

Search for Another Location

Airport:

Trip Planner

Search our weather history database for the weather conditions in past years. The results will help you decide how hot, cold, wet, or windy it might be!

Date:

Astronomy

Nov. 23, 2012 Rise Set
Actual Time 6:59 AM EST 5:31 PM EST
Civil Twilight 6:33 AM EST 5:56 PM EST
Nautical Twilight 6:04 AM EST 6:25 PM EST
Astronomical Twilight 5:36 AM EST 6:54 PM EST
Moon 2:29 PM EST (11/23) 2:35 AM EST (11/23)
Length of Visible Light 11h 22m
Length of Day
10h 31m
Waxing Gibbous, 79% of the Moon is Illuminated
Nov 23
Waxing Gibbous
Nov 28
Full
Dec 6
Last Quarter
Dec 13
New
Dec 20
First Quarter

Hourly Weather History & Observations

Time (EST) Temp. Dew Point Humidity Pressure Visibility Wind Dir Wind Speed Gust Speed Precip Events Conditions
12:15 AM 4.0 °C 0.0 °C 75% 1022.6 hPa 16.1 km Calm Calm - N/A   Clear
12:35 AM 3.0 °C -1.0 °C 75% 1022.6 hPa 16.1 km Calm Calm - N/A   Clear
12:55 AM 3.0 °C -1.0 °C 75% 1022.2 hPa 16.1 km Calm Calm - N/A   Clear
1:15 AM 3.0 °C -1.0 °C 75% 1022.2 hPa 16.1 km Calm Calm - N/A   Clear
1:35 AM 2.0 °C -1.0 °C 81% 1022.2 hPa 16.1 km Calm Calm - N/A   Clear
1:55 AM 2.0 °C -1.0 °C 81% 1022.2 hPa 16.1 km Calm Calm - N/A   Clear
2:15 AM 2.0 °C -1.0 °C 81% 1021.9 hPa 16.1 km Calm Calm - N/A   Clear
2:35 AM 2.0 °C -1.0 °C 81% 1021.9 hPa 16.1 km Calm Calm - N/A   Clear
2:55 AM 2.0 °C -1.0 °C 81% 1022.2 hPa 16.1 km Calm Calm - N/A   Clear
3:15 AM 2.0 °C -1.0 °C 81% 1022.2 hPa 16.1 km Calm Calm - N/A   Clear
3:35 AM 2.0 °C -2.0 °C 75% 1022.2 hPa 16.1 km Calm Calm - N/A   Clear
3:55 AM 1.0 °C -2.0 °C 81% 1022.2 hPa 16.1 km Calm Calm - N/A   Clear
4:15 AM 1.0 °C -2.0 °C 81% 1021.9 hPa 16.1 km Calm Calm - N/A   Clear
4:35 AM 1.0 °C -2.0 °C 81% 1021.9 hPa 16.1 km Calm Calm - N/A   Clear
4:55 AM 1.0 °C -2.0 °C 81% 1021.9 hPa 16.1 km Calm Calm - N/A   Clear
5:15 AM 1.0 °C -2.0 °C 81% 1022.2 hPa 16.1 km Calm Calm - N/A   Clear
5:35 AM 1.0 °C -2.0 °C 81% 1022.2 hPa 16.1 km Calm Calm - N/A   Clear
5:55 AM 1.0 °C -2.0 °C 81% 1022.2 hPa 16.1 km Calm Calm - N/A   Clear
6:15 AM 1.0 °C -2.0 °C 81% 1022.6 hPa 16.1 km Calm Calm - N/A   Clear
6:35 AM 1.0 °C -2.0 °C 81% 1022.9 hPa 16.1 km Calm Calm - N/A   Clear
7:50 AM 1.0 °C -2.0 °C 81% 1023.6 hPa 16.1 km Calm Calm - N/A   Clear
8:50 AM 9.0 °C 3.0 °C 66% 1023.9 hPa 16.1 km Calm Calm - N/A   Clear
9:50 AM 16.0 °C 2.0 °C 39% 1024.3 hPa 16.1 km North 5.6 km/h / 1.5 m/s - N/A   Clear
10:50 AM 19.0 °C 2.0 °C 32% 1023.9 hPa 16.1 km NNW 11.1 km/h / 3.1 m/s - N/A   Clear
11:50 AM 20.0 °C 2.0 °C 30% 1023.2 hPa 16.1 km NNW 16.7 km/h / 4.6 m/s - N/A   Clear
12:50 PM 22.0 °C 2.0 °C 27% 1021.9 hPa 16.1 km NNW 20.4 km/h / 5.7 m/s 25.9 km/h / 7.2 m/s N/A   Clear
1:50 PM 22.0 °C 2.0 °C 27% 1020.9 hPa 16.1 km North 14.8 km/h / 4.1 m/s - N/A   Clear
2:50 PM 23.0 °C 2.0 °C 25% 1020.2 hPa 16.1 km North 18.5 km/h / 5.1 m/s - N/A   Clear
3:50 PM 23.0 °C 2.0 °C 25% 1019.2 hPa 16.1 km NNW 18.5 km/h / 5.1 m/s - N/A   Clear
4:55 PM 21.0 °C 3.0 °C 31% 1019.2 hPa 16.1 km NNW 7.4 km/h / 2.1 m/s - N/A   Clear
5:50 PM 16.0 °C 3.0 °C 42% 1019.5 hPa 16.1 km SW 11.1 km/h / 3.1 m/s - N/A   Clear
6:50 PM 14.0 °C 5.0 °C 55% 1019.5 hPa 16.1 km SW 9.3 km/h / 2.6 m/s - N/A   Clear
7:55 PM 13.0 °C 6.0 °C 63% 1020.2 hPa 16.1 km SW 7.4 km/h / 2.1 m/s - N/A   Clear
8:15 PM 12.0 °C 6.0 °C 67% 1020.5 hPa 16.1 km SW 7.4 km/h / 2.1 m/s - N/A   Clear
8:35 PM 12.0 °C 7.0 °C 72% 1020.5 hPa 16.1 km Calm Calm - N/A   Clear
8:55 PM 12.0 °C 6.0 °C 67% 1020.5 hPa 16.1 km South 7.4 km/h / 2.1 m/s - N/A   Clear
9:15 PM 11.0 °C 7.0 °C 76% 1020.2 hPa 16.1 km SSW 5.6 km/h / 1.5 m/s - N/A   Clear
9:35 PM 9.0 °C 5.0 °C 76% 1020.2 hPa 16.1 km Calm Calm - N/A   Clear
9:55 PM 9.0 °C 5.0 °C 76% 1020.2 hPa 16.1 km SSW 5.6 km/h / 1.5 m/s - N/A   Clear
10:15 PM 8.0 °C 4.0 °C 76% 1020.2 hPa 16.1 km Calm Calm - N/A   Clear
10:35 PM 9.0 °C 7.0 °C 87% 1019.9 hPa 16.1 km Calm Calm - N/A   Clear
10:55 PM 9.0 °C 6.0 °C 82% 1019.9 hPa 16.1 km SSW 5.6 km/h / 1.5 m/s - N/A   Clear
11:15 PM 9.0 °C 6.0 °C 82% 1019.5 hPa 12.9 km SSW 5.6 km/h / 1.5 m/s - N/A   Clear
11:35 PM 11.0 °C 8.0 °C 82% 1019.5 hPa 12.9 km Calm Calm - N/A   Clear
11:55 PM 8.0 °C 5.0 °C 81% 1019.5 hPa 3.2 km Calm Calm - N/A   Clear